date,time,water_lv
2012-09-01,00:00:00,134.77
2012-09-01,00:10:00,134.77
2012-09-01,00:20:00,134.77
2012-09-01,00:30:00,134.77
2012-09-01,00:40:00,134.77
2012-09-01,00:50:00,134.77
2012-09-01,01:00:00,134.76
2012-09-01,01:10:00,134.76
2012-09-01,01:20:00,134.76
2012-09-01,01:30:00,134.76
2012-09-01,01:40:00,134.76
2012-09-01,01:50:00,134.75
2012-09-01,02:00:00,134.75
2012-09-01,02:10:00,134.75
2012-09-01,02:20:00,134.75
2012-09-01,02:30:00,134.74
2012-09-01,02:40:00,134.74
2012-09-01,02:50:00,134.74
2012-09-01,03:00:00,134.74
2012-09-01,03:10:00,134.74
2012-09-01,03:20:00,134.73
2012-09-01,03:30:00,134.73
2012-09-01,03:40:00,134.73
2012-09-01,03:50:00,134.72
2012-09-01,04:00:00,134.72
2012-09-01,04:10:00,134.72
2012-09-01,04:20:00,134.72
2012-09-01,04:30:00,134.72
2012-09-01,04:40:00,134.71
2012-09-01,04:50:00,134.71
2012-09-01,05:00:00,134.71
2012-09-01,05:10:00,134.71
2012-09-01,05:20:00,134.7
2012-09-01,05:30:00,134.7
2012-09-01,05:40:00,134.7
2012-09-01,05:50:00,134.7
2012-09-01,06:00:00,134.7
2012-09-01,06:10:00,134.69
2012-09-01,06:20:00,134.69
2012-09-01,06:30:00,134.69
2012-09-01,06:40:00,134.69
2012-09-01,06:50:00,134.68
2012-09-01,07:00:00,134.68
2012-09-01,07:10:00,134.68
2012-09-01,07:20:00,134.68
2012-09-01,07:30:00,134.68
2012-09-01,07:40:00,134.67
2012-09-01,07:50:00,134.67
2012-09-01,08:00:00,134.67
2012-09-01,08:10:00,134.67
2012-09-01,08:20:00,134.67
2012-09-01,08:30:00,134.66
2012-09-01,08:40:00,134.66
2012-09-01,08:50:00,134.66
2012-09-01,09:00:00,134.66
2012-09-01,09:10:00,134.66
2012-09-01,09:20:00,134.65
2012-09-01,09:30:00,134.65
2012-09-01,09:40:00,134.65
2012-09-01,09:50:00,134.64
2012-09-01,10:00:00,134.64
2012-09-01,10:10:00,134.64
2012-09-01,10:20:00,134.64
2012-09-01,10:30:00,134.64
2012-09-01,10:40:00,134.64
2012-09-01,10:50:00,134.64
2012-09-01,11:00:00,134.62
2012-09-01,11:10:00,134.63
2012-09-01,11:20:00,134.63
2012-09-01,11:30:00,134.63
2012-09-01,11:40:00,134.62
2012-09-01,11:50:00,134.62
2012-09-01,12:00:00,134.62
2012-09-01,12:10:00,134.62
2012-09-01,12:20:00,134.62
2012-09-01,12:30:00,134.62
2012-09-01,12:40:00,134.61
2012-09-01,12:50:00,134.61
2012-09-01,13:00:00,134.61
2012-09-01,13:10:00,134.61
2012-09-01,13:20:00,134.6
2012-09-01,13:30:00,134.6
2012-09-01,13:40:00,134.6
2012-09-01,13:50:00,134.6
2012-09-01,14:00:00,134.6
2012-09-01,14:10:00,134.6
2012-09-01,14:20:00,134.59
2012-09-01,14:30:00,134.6
2012-09-01,14:40:00,134.59
2012-09-01,14:50:00,134.59
2012-09-01,15:00:00,134.59
2012-09-01,15:10:00,134.59
2012-09-01,15:20:00,134.59
2012-09-01,15:30:00,134.59
2012-09-01,15:40:00,134.59
2012-09-01,15:50:00,134.58
2012-09-01,16:00:00,134.58
2012-09-01,16:10:00,134.58
2012-09-01,16:20:00,134.58
2012-09-01,16:30:00,134.58
2012-09-01,16:40:00,134.57
2012-09-01,16:50:00,134.57
2012-09-01,17:00:00,134.57
2012-09-01,17:10:00,134.57
2012-09-01,17:20:00,134.57
2012-09-01,17:30:00,134.57
2012-09-01,17:40:00,134.56
2012-09-01,17:50:00,134.56
2012-09-01,18:00:00,134.56
2012-09-01,18:10:00,134.56
2012-09-01,18:20:00,134.56
2012-09-01,18:30:00,134.55
2012-09-01,18:40:00,134.55
2012-09-01,18:50:00,134.55
2012-09-01,19:00:00,134.55
2012-09-01,19:10:00,134.55
2012-09-01,19:20:00,134.55
2012-09-01,19:30:00,134.55
2012-09-01,19:40:00,134.54
2012-09-01,19:50:00,134.54
2012-09-01,20:00:00,134.54
2012-09-01,20:10:00,134.54
2012-09-01,20:20:00,134.53
2012-09-01,20:30:00,134.53
2012-09-01,20:40:00,134.53
2012-09-01,20:50:00,134.53
2012-09-01,21:00:00,134.52
2012-09-01,21:10:00,134.52
2012-09-01,21:20:00,134.52
2012-09-01,21:30:00,134.52
2012-09-01,21:40:00,134.51
2012-09-01,21:50:00,134.51
2012-09-01,22:00:00,134.51
2012-09-01,22:10:00,134.51
2012-09-01,22:20:00,134.5
2012-09-01,22:30:00,134.5
2012-09-01,22:40:00,134.5
2012-09-01,22:50:00,134.5
2012-09-01,23:00:00,134.49
2012-09-01,23:10:00,134.49
2012-09-01,23:20:00,134.49
2012-09-01,23:30:00,134.49
2012-09-01,23:40:00,134.48
2012-09-01,23:50:00,134.48
2012-09-02,00:00:00,134.48
2012-09-02,00:10:00,134.48
2012-09-02,00:20:00,134.47
2012-09-02,00:30:00,134.47
2012-09-02,00:40:00,134.47
2012-09-02,00:50:00,134.47
2012-09-02,01:00:00,134.46
2012-09-02,01:10:00,134.46
2012-09-02,01:20:00,134.45
2012-09-02,01:30:00,134.45
2012-09-02,01:40:00,134.45
2012-09-02,01:50:00,134.45
2012-09-02,02:00:00,134.45
2012-09-02,02:10:00,134.44
2012-09-02,02:20:00,134.44
2012-09-02,02:30:00,134.44
2012-09-02,02:40:00,134.43
2012-09-02,02:50:00,134.43
2012-09-02,03:00:00,134.43
2012-09-02,03:10:00,134.42
2012-09-02,03:20:00,134.42
2012-09-02,03:30:00,134.42
2012-09-02,03:40:00,134.41
2012-09-02,03:50:00,134.41
2012-09-02,04:00:00,134.41
2012-09-02,04:10:00,134.41
2012-09-02,04:20:00,134.4
2012-09-02,04:30:00,134.4
2012-09-02,04:40:00,134.4
2012-09-02,04:50:00,134.39
2012-09-02,05:00:00,134.39
2012-09-02,05:10:00,134.39
2012-09-02,05:20:00,134.38
2012-09-02,05:30:00,134.38
2012-09-02,05:40:00,134.38
2012-09-02,05:50:00,134.38
2012-09-02,06:00:00,134.37
2012-09-02,06:10:00,134.37
2012-09-02,06:20:00,134.37
2012-09-02,06:30:00,134.36
2012-09-02,06:40:00,134.36
2012-09-02,06:50:00,-
2012-09-02,07:00:00,134.36
2012-09-02,07:10:00,134.35
2012-09-02,07:20:00,134.35
2012-09-02,07:30:00,-
2012-09-02,07:40:00,-
2012-09-02,07:50:00,134.34
2012-09-02,08:00:00,134.34
2012-09-02,08:10:00,134.34
2012-09-02,08:20:00,134.34
2012-09-02,08:30:00,134.33
2012-09-02,08:40:00,134.33
2012-09-02,08:50:00,134.33
2012-09-02,09:00:00,-
2012-09-02,09:10:00,-
2012-09-02,09:20:00,-
2012-09-02,09:30:00,134.32
2012-09-02,09:40:00,134.31
2012-09-02,09:50:00,134.31
2012-09-02,10:00:00,134.31
2012-09-02,10:10:00,134.31
2012-09-02,10:20:00,134.31
2012-09-02,10:30:00,134.31
2012-09-02,10:40:00,134.31
2012-09-02,10:50:00,134.3
2012-09-02,11:00:00,134.3
2012-09-02,11:10:00,134.3
2012-09-02,11:20:00,134.3
2012-09-02,11:30:00,134.29
2012-09-02,11:40:00,134.29
2012-09-02,11:50:00,134.29
2012-09-02,12:00:00,134.29
2012-09-02,12:10:00,134.29
2012-09-02,12:20:00,134.29
2012-09-02,12:30:00,134.28
2012-09-02,12:40:00,134.28
2012-09-02,12:50:00,134.28
2012-09-02,13:00:00,134.28
2012-09-02,13:10:00,134.28
2012-09-02,13:20:00,134.28
2012-09-02,13:30:00,134.28
2012-09-02,13:40:00,134.28
2012-09-02,13:50:00,134.28
2012-09-02,14:00:00,134.28
2012-09-02,14:10:00,134.28
2012-09-02,14:20:00,134.28
2012-09-02,14:30:00,134.28
2012-09-02,14:40:00,134.27
2012-09-02,14:50:00,134.28
2012-09-02,15:00:00,134.28
2012-09-02,15:10:00,134.28
2012-09-02,15:20:00,134.28
2012-09-02,15:30:00,134.28
2012-09-02,15:40:00,134.28
2012-09-02,15:50:00,134.28
2012-09-02,16:00:00,134.28
2012-09-02,16:10:00,134.28
2012-09-02,16:20:00,134.28
2012-09-02,16:30:00,134.28
2012-09-02,16:40:00,134.28
2012-09-02,16:50:00,134.28
2012-09-02,17:00:00,134.28
2012-09-02,17:10:00,134.28
2012-09-02,17:20:00,134.28
2012-09-02,17:30:00,134.28
2012-09-02,17:40:00,134.28
2012-09-02,17:50:00,134.28
2012-09-02,18:00:00,134.28
2012-09-02,18:10:00,134.28
2012-09-02,18:20:00,134.29
2012-09-02,18:30:00,134.29
2012-09-02,18:40:00,134.29
2012-09-02,18:50:00,134.29
2012-09-02,19:00:00,134.29
2012-09-02,19:10:00,134.29
2012-09-02,19:20:00,134.29
2012-09-02,19:30:00,134.29
2012-09-02,19:40:00,134.29
2012-09-02,19:50:00,134.29
2012-09-02,20:00:00,134.29
2012-09-02,20:10:00,134.29
2012-09-02,20:20:00,134.3
2012-09-02,20:30:00,134.29
2012-09-02,20:40:00,134.29
2012-09-02,20:50:00,134.3
2012-09-02,21:00:00,134.3
2012-09-02,21:10:00,134.3
2012-09-02,21:20:00,134.3
2012-09-02,21:30:00,134.3
2012-09-02,21:40:00,134.3
2012-09-02,21:50:00,134.3
2012-09-02,22:00:00,134.3
2012-09-02,22:10:00,134.3
2012-09-02,22:20:00,134.3
2012-09-02,22:30:00,134.3
2012-09-02,22:40:00,134.3
2012-09-02,22:50:00,134.3
2012-09-02,23:00:00,134.3
2012-09-02,23:10:00,134.3
2012-09-02,23:20:00,134.3
2012-09-02,23:30:00,134.3
2012-09-02,23:40:00,134.3
2012-09-02,23:50:00,134.3
2012-09-03,00:00:00,134.3
2012-09-03,00:10:00,134.3
2012-09-03,00:20:00,134.3
2012-09-03,00:30:00,134.3
2012-09-03,00:40:00,134.3
2012-09-03,00:50:00,134.3
2012-09-03,01:00:00,134.3
2012-09-03,01:10:00,134.3
2012-09-03,01:20:00,134.3
2012-09-03,01:30:00,134.3
2012-09-03,01:40:00,134.3
2012-09-03,01:50:00,134.3
2012-09-03,02:00:00,134.3
2012-09-03,02:10:00,134.3
2012-09-03,02:20:00,134.3
2012-09-03,02:30:00,134.29
2012-09-03,02:40:00,134.3
2012-09-03,02:50:00,134.3
2012-09-03,03:00:00,134.29
2012-09-03,03:10:00,134.29
2012-09-03,03:20:00,134.29
2012-09-03,03:30:00,134.29
2012-09-03,03:40:00,134.29
2012-09-03,03:50:00,134.29
2012-09-03,04:00:00,134.29
2012-09-03,04:10:00,134.29
2012-09-03,04:20:00,134.29
2012-09-03,04:30:00,134.28
2012-09-03,04:40:00,134.29
2012-09-03,04:50:00,134.28
2012-09-03,05:00:00,134.28
2012-09-03,05:10:00,134.28
2012-09-03,05:20:00,134.28
2012-09-03,05:30:00,134.28
2012-09-03,05:40:00,134.28
2012-09-03,05:50:00,134.28
2012-09-03,06:00:00,134.28
2012-09-03,06:10:00,134.28
2012-09-03,06:20:00,134.28
2012-09-03,06:30:00,134.28
2012-09-03,06:40:00,134.28
2012-09-03,06:50:00,134.28
2012-09-03,07:00:00,134.28
2012-09-03,07:10:00,134.27
2012-09-03,07:20:00,134.27
2012-09-03,07:30:00,134.27
2012-09-03,07:40:00,134.27
2012-09-03,07:50:00,134.27
2012-09-03,08:00:00,134.27
2012-09-03,08:10:00,134.27
2012-09-03,08:20:00,134.26
2012-09-03,08:30:00,134.26
2012-09-03,08:40:00,134.26
2012-09-03,08:50:00,134.26
2012-09-03,09:00:00,134.26
2012-09-03,09:10:00,134.26
2012-09-03,09:20:00,134.26
2012-09-03,09:30:00,134.26
2012-09-03,09:40:00,134.26
2012-09-03,09:50:00,134.25
2012-09-03,10:00:00,134.26
2012-09-03,10:10:00,134.25
2012-09-03,10:20:00,134.25
2012-09-03,10:30:00,134.25
2012-09-03,10:40:00,134.25
2012-09-03,10:50:00,134.25
2012-09-03,11:00:00,134.25
2012-09-03,11:10:00,134.24
2012-09-03,11:20:00,134.24
2012-09-03,11:30:00,134.24
2012-09-03,11:40:00,134.24
2012-09-03,11:50:00,134.24
2012-09-03,12:00:00,134.24
2012-09-03,12:10:00,134.24
2012-09-03,12:20:00,134.24
2012-09-03,12:30:00,134.24
2012-09-03,12:40:00,134.24
2012-09-03,12:50:00,134.24
2012-09-03,13:00:00,134.23
2012-09-03,13:10:00,134.23
2012-09-03,13:20:00,134.23
2012-09-03,13:30:00,134.23
2012-09-03,13:40:00,134.23
2012-09-03,13:50:00,134.23
2012-09-03,14:00:00,134.23
2012-09-03,14:10:00,134.23
2012-09-03,14:20:00,134.23
2012-09-03,14:30:00,134.23
2012-09-03,14:40:00,134.23
2012-09-03,14:50:00,134.23
2012-09-03,15:00:00,134.22
2012-09-03,15:10:00,134.22
2012-09-03,15:20:00,134.22
2012-09-03,15:30:00,134.22
2012-09-03,15:40:00,134.22
2012-09-03,15:50:00,134.22
2012-09-03,16:00:00,134.22
2012-09-03,16:10:00,134.22
2012-09-03,16:20:00,134.22
2012-09-03,16:30:00,134.22
2012-09-03,16:40:00,134.22
2012-09-03,16:50:00,134.21
2012-09-03,17:00:00,134.21
2012-09-03,17:10:00,134.21
2012-09-03,17:20:00,134.21
2012-09-03,17:30:00,134.21
2012-09-03,17:40:00,134.21
2012-09-03,17:50:00,134.21
2012-09-03,18:00:00,134.2
2012-09-03,18:10:00,134.2
2012-09-03,18:20:00,134.2
2012-09-03,18:30:00,134.2
2012-09-03,18:40:00,134.2
2012-09-03,18:50:00,134.2
2012-09-03,19:00:00,134.2
2012-09-03,19:10:00,134.2
2012-09-03,19:20:00,134.19
2012-09-03,19:30:00,134.19
2012-09-03,19:40:00,134.19
2012-09-03,19:50:00,134.19
2012-09-03,20:00:00,134.19
2012-09-03,20:10:00,134.19
2012-09-03,20:20:00,134.19
2012-09-03,20:30:00,134.18
2012-09-03,20:40:00,134.18
2012-09-03,20:50:00,134.18
2012-09-03,21:00:00,134.18
2012-09-03,21:10:00,134.18
2012-09-03,21:20:00,134.18
2012-09-03,21:30:00,134.18
2012-09-03,21:40:00,134.17
2012-09-03,21:50:00,134.17
2012-09-03,22:00:00,134.17
2012-09-03,22:10:00,134.17
2012-09-03,22:20:00,134.17
2012-09-03,22:30:00,134.17
2012-09-03,22:40:00,134.17
2012-09-03,22:50:00,134.16
2012-09-03,23:00:00,134.16
2012-09-03,23:10:00,134.16
2012-09-03,23:20:00,134.16
2012-09-03,23:30:00,134.16
2012-09-03,23:40:00,134.15
2012-09-03,23:50:00,134.15
2012-09-04,00:00:00,134.15
2012-09-04,00:10:00,134.15
2012-09-04,00:20:00,134.14
2012-09-04,00:30:00,134.14
2012-09-04,00:40:00,134.14
2012-09-04,00:50:00,134.14
2012-09-04,01:00:00,134.14
2012-09-04,01:10:00,134.13
2012-09-04,01:20:00,134.13
2012-09-04,01:30:00,134.13
2012-09-04,01:40:00,134.13
2012-09-04,01:50:00,134.12
2012-09-04,02:00:00,134.12
2012-09-04,02:10:00,134.12
2012-09-04,02:20:00,134.12
2012-09-04,02:30:00,134.11
2012-09-04,02:40:00,134.11
2012-09-04,02:50:00,134.11
2012-09-04,03:00:00,134.11
2012-09-04,03:10:00,134.11
2012-09-04,03:20:00,134.1
2012-09-04,03:30:00,134.1
2012-09-04,03:40:00,134.1
2012-09-04,03:50:00,134.1
2012-09-04,04:00:00,134.09
2012-09-04,04:10:00,134.09
2012-09-04,04:20:00,134.09
2012-09-04,04:30:00,134.09
2012-09-04,04:40:00,134.08
2012-09-04,04:50:00,134.08
2012-09-04,05:00:00,134.08
2012-09-04,05:10:00,134.08
2012-09-04,05:20:00,134.07
2012-09-04,05:30:00,134.07
2012-09-04,05:40:00,134.07
2012-09-04,05:50:00,134.07
2012-09-04,06:00:00,134.06
2012-09-04,06:10:00,134.06
2012-09-04,06:20:00,134.06
2012-09-04,06:30:00,134.06
2012-09-04,06:40:00,134.05
2012-09-04,06:50:00,134.05
2012-09-04,07:00:00,134.05
2012-09-04,07:10:00,134.05
2012-09-04,07:20:00,134.05
2012-09-04,07:30:00,134.05
2012-09-04,07:40:00,134.04
2012-09-04,07:50:00,134.04
2012-09-04,08:00:00,134.04
2012-09-04,08:10:00,134.04
2012-09-04,08:20:00,134.05
2012-09-04,08:30:00,134.04
2012-09-04,08:40:00,134.04
2012-09-04,08:50:00,134.04
2012-09-04,09:00:00,134.04
2012-09-04,09:10:00,134.04
2012-09-04,09:20:00,134.03
2012-09-04,09:30:00,134.03
2012-09-04,09:40:00,134.03
2012-09-04,09:50:00,134.03
2012-09-04,10:00:00,134.03
2012-09-04,10:10:00,134.03
2012-09-04,10:20:00,134.03
2012-09-04,10:30:00,134.03
2012-09-04,10:40:00,134.02
2012-09-04,10:50:00,134.02
2012-09-04,11:00:00,134.02
2012-09-04,11:10:00,134.02
2012-09-04,11:20:00,134.02
2012-09-04,11:30:00,134.02
2012-09-04,11:40:00,134.02
2012-09-04,11:50:00,134.02
2012-09-04,12:00:00,134.01
2012-09-04,12:10:00,134.01
2012-09-04,12:20:00,134.01
2012-09-04,12:30:00,134.01
2012-09-04,12:40:00,134.01
2012-09-04,12:50:00,134.01
2012-09-04,13:00:00,134.01
2012-09-04,13:10:00,134.01
2012-09-04,13:20:00,134.01
2012-09-04,13:30:00,134
2012-09-04,13:40:00,134
2012-09-04,13:50:00,134
2012-09-04,14:00:00,134
2012-09-04,14:10:00,134
2012-09-04,14:20:00,134
2012-09-04,14:30:00,134
2012-09-04,14:40:00,134
2012-09-04,14:50:00,134
2012-09-04,15:00:00,133.99
2012-09-04,15:10:00,133.99
2012-09-04,15:20:00,133.99
2012-09-04,15:30:00,133.99
2012-09-04,15:40:00,133.99
2012-09-04,15:50:00,133.99
2012-09-04,16:00:00,133.99
2012-09-04,16:10:00,133.99
2012-09-04,16:20:00,133.99
2012-09-04,16:30:00,133.99
2012-09-04,16:40:00,133.99
2012-09-04,16:50:00,133.99
2012-09-04,17:00:00,133.98
2012-09-04,17:10:00,133.98
2012-09-04,17:20:00,133.98
2012-09-04,17:30:00,133.98
2012-09-04,17:40:00,133.98
2012-09-04,17:50:00,133.98
2012-09-04,18:00:00,133.98
2012-09-04,18:10:00,133.97
2012-09-04,18:20:00,133.97
2012-09-04,18:30:00,133.97
2012-09-04,18:40:00,133.97
2012-09-04,18:50:00,133.97
2012-09-04,19:00:00,133.97
2012-09-04,19:10:00,133.97
2012-09-04,19:20:00,133.97
2012-09-04,19:30:00,133.97
2012-09-04,19:40:00,133.96
2012-09-04,19:50:00,133.96
2012-09-04,20:00:00,133.96
2012-09-04,20:10:00,133.96
2012-09-04,20:20:00,133.96
2012-09-04,20:30:00,133.96
2012-09-04,20:40:00,133.95
2012-09-04,20:50:00,133.95
2012-09-04,21:00:00,133.95
2012-09-04,21:10:00,133.95
2012-09-04,21:20:00,133.95
2012-09-04,21:30:00,133.95
2012-09-04,21:40:00,133.94
2012-09-04,21:50:00,133.94
2012-09-04,22:00:00,133.94
2012-09-04,22:10:00,133.94
2012-09-04,22:20:00,133.94
2012-09-04,22:30:00,133.94
2012-09-04,22:40:00,133.93
2012-09-04,22:50:00,133.93
2012-09-04,23:00:00,133.93
2012-09-04,23:10:00,133.93
2012-09-04,23:20:00,133.93
2012-09-04,23:30:00,133.93
2012-09-04,23:40:00,133.93
2012-09-04,23:50:00,133.93
2012-09-05,00:00:00,133.93
2012-09-05,00:10:00,133.92
2012-09-05,00:20:00,133.92
2012-09-05,00:30:00,133.92
2012-09-05,00:40:00,133.92
2012-09-05,00:50:00,133.93
2012-09-05,01:00:00,133.93
2012-09-05,01:10:00,133.93
2012-09-05,01:20:00,133.93
2012-09-05,01:30:00,133.93
2012-09-05,01:40:00,133.93
2012-09-05,01:50:00,133.93
2012-09-05,02:00:00,133.93
2012-09-05,02:10:00,133.94
2012-09-05,02:20:00,133.94
2012-09-05,02:30:00,133.95
2012-09-05,02:40:00,133.95
2012-09-05,02:50:00,133.96
2012-09-05,03:00:00,133.96
2012-09-05,03:10:00,133.97
2012-09-05,03:20:00,133.98
2012-09-05,03:30:00,133.99
2012-09-05,03:40:00,134
2012-09-05,03:50:00,134.01
2012-09-05,04:00:00,134.02
2012-09-05,04:10:00,134.03
2012-09-05,04:20:00,134.05
2012-09-05,04:30:00,134.06
2012-09-05,04:40:00,134.08
2012-09-05,04:50:00,134.1
2012-09-05,05:00:00,134.12
2012-09-05,05:10:00,134.15
2012-09-05,05:20:00,134.17
2012-09-05,05:30:00,134.2
2012-09-05,05:40:00,134.22
2012-09-05,05:50:00,134.25
2012-09-05,06:00:00,134.28
2012-09-05,06:10:00,134.32
2012-09-05,06:20:00,134.35
2012-09-05,06:30:00,134.38
2012-09-05,06:40:00,134.42
2012-09-05,06:50:00,134.45
2012-09-05,07:00:00,134.49
2012-09-05,07:10:00,134.53
2012-09-05,07:20:00,134.57
2012-09-05,07:30:00,134.61
2012-09-05,07:40:00,134.65
2012-09-05,07:50:00,134.69
2012-09-05,08:00:00,134.73
2012-09-05,08:10:00,134.77
2012-09-05,08:20:00,134.81
2012-09-05,08:30:00,134.86
2012-09-05,08:40:00,134.9
2012-09-05,08:50:00,134.93
2012-09-05,09:00:00,134.97
2012-09-05,09:10:00,135.01
2012-09-05,09:20:00,135.06
2012-09-05,09:30:00,135.09
2012-09-05,09:40:00,135.13
2012-09-05,09:50:00,135.17
2012-09-05,10:00:00,135.21
2012-09-05,10:10:00,135.25
2012-09-05,10:20:00,135.29
2012-09-05,10:30:00,135.32
2012-09-05,10:40:00,135.36
2012-09-05,10:50:00,135.39
2012-09-05,11:00:00,135.43
2012-09-05,11:10:00,135.46
2012-09-05,11:20:00,135.5
2012-09-05,11:30:00,135.53
2012-09-05,11:40:00,135.57
2012-09-05,11:50:00,135.6
2012-09-05,12:00:00,135.63
2012-09-05,12:10:00,135.67
2012-09-05,12:20:00,135.69
2012-09-05,12:30:00,135.73
2012-09-05,12:40:00,135.76
2012-09-05,12:50:00,135.79
2012-09-05,13:00:00,135.82
2012-09-05,13:10:00,135.85
2012-09-05,13:20:00,135.87
2012-09-05,13:30:00,135.9
2012-09-05,13:40:00,135.93
2012-09-05,13:50:00,135.96
2012-09-05,14:00:00,135.98
2012-09-05,14:10:00,136.01
2012-09-05,14:20:00,136.03
2012-09-05,14:30:00,136.07
2012-09-05,14:40:00,136.09
2012-09-05,14:50:00,136.12
2012-09-05,15:00:00,136.14
2012-09-05,15:10:00,136.17
2012-09-05,15:20:00,136.19
2012-09-05,15:30:00,136.22
2012-09-05,15:40:00,136.24
2012-09-05,15:50:00,136.26
2012-09-05,16:00:00,136.28
2012-09-05,16:10:00,136.31
2012-09-05,16:20:00,136.33
2012-09-05,16:30:00,136.35
2012-09-05,16:40:00,136.37
2012-09-05,16:50:00,136.39
2012-09-05,17:00:00,136.41
2012-09-05,17:10:00,136.43
2012-09-05,17:20:00,136.45
2012-09-05,17:30:00,136.47
2012-09-05,17:40:00,136.49
2012-09-05,17:50:00,136.51
2012-09-05,18:00:00,136.53
2012-09-05,18:10:00,136.55
2012-09-05,18:20:00,136.57
2012-09-05,18:30:00,136.59
2012-09-05,18:40:00,136.61
2012-09-05,18:50:00,136.63
2012-09-05,19:00:00,136.65
2012-09-05,19:10:00,136.67
2012-09-05,19:20:00,136.69
2012-09-05,19:30:00,136.71
2012-09-05,19:40:00,136.72
2012-09-05,19:50:00,136.74
2012-09-05,20:00:00,136.76
2012-09-05,20:10:00,136.78
2012-09-05,20:20:00,136.8
2012-09-05,20:30:00,136.82
2012-09-05,20:40:00,136.84
2012-09-05,20:50:00,136.86
2012-09-05,21:00:00,136.88
2012-09-05,21:10:00,136.89
2012-09-05,21:20:00,136.91
2012-09-05,21:30:00,136.93
2012-09-05,21:40:00,136.95
2012-09-05,21:50:00,136.97
2012-09-05,22:00:00,136.99
2012-09-05,22:10:00,137.01
2012-09-05,22:20:00,137.03
2012-09-05,22:30:00,137.05
2012-09-05,22:40:00,137.06
2012-09-05,22:50:00,137.09
2012-09-05,23:00:00,137.11
2012-09-05,23:10:00,137.13
2012-09-05,23:20:00,137.14
2012-09-05,23:30:00,137.17
2012-09-05,23:40:00,137.19
2012-09-05,23:50:00,137.2
2012-09-06,00:00:00,137.22
2012-09-06,00:10:00,137.24
2012-09-06,00:20:00,137.26
2012-09-06,00:30:00,137.28
2012-09-06,00:40:00,137.29
2012-09-06,00:50:00,137.31
2012-09-06,01:00:00,137.33
2012-09-06,01:10:00,137.35
2012-09-06,01:20:00,137.37
2012-09-06,01:30:00,137.39
2012-09-06,01:40:00,137.41
2012-09-06,01:50:00,137.43
2012-09-06,02:00:00,137.45
2012-09-06,02:10:00,137.47
2012-09-06,02:20:00,137.48
2012-09-06,02:30:00,137.5
2012-09-06,02:40:00,137.52
2012-09-06,02:50:00,137.54
2012-09-06,03:00:00,137.56
2012-09-06,03:10:00,137.58
2012-09-06,03:20:00,137.6
2012-09-06,03:30:00,137.61
2012-09-06,03:40:00,137.63
2012-09-06,03:50:00,137.64
2012-09-06,04:00:00,137.66
2012-09-06,04:10:00,137.68
2012-09-06,04:20:00,137.7
2012-09-06,04:30:00,137.72
2012-09-06,04:40:00,137.73
2012-09-06,04:50:00,137.75
2012-09-06,05:00:00,137.77
2012-09-06,05:10:00,137.79
2012-09-06,05:20:00,137.8
2012-09-06,05:30:00,137.82
2012-09-06,05:40:00,137.84
2012-09-06,05:50:00,137.86
2012-09-06,06:00:00,137.88
2012-09-06,06:10:00,137.9
2012-09-06,06:20:00,137.92
2012-09-06,06:30:00,137.93
2012-09-06,06:40:00,137.95
2012-09-06,06:50:00,137.96
2012-09-06,07:00:00,137.98
2012-09-06,07:10:00,138
2012-09-06,07:20:00,138.01
2012-09-06,07:30:00,138.03
2012-09-06,07:40:00,138.04
2012-09-06,07:50:00,138.06
2012-09-06,08:00:00,138.08
2012-09-06,08:10:00,138.09
2012-09-06,08:20:00,138.11
2012-09-06,08:30:00,138.13
2012-09-06,08:40:00,138.14
2012-09-06,08:50:00,138.16
2012-09-06,09:00:00,138.17
2012-09-06,09:10:00,138.19
2012-09-06,09:20:00,138.2
2012-09-06,09:30:00,138.22
2012-09-06,09:40:00,138.23
2012-09-06,09:50:00,138.25
2012-09-06,10:00:00,138.26
2012-09-06,10:10:00,138.28
2012-09-06,10:20:00,138.29
2012-09-06,10:30:00,138.3
2012-09-06,10:40:00,138.32
2012-09-06,10:50:00,138.33
2012-09-06,11:00:00,138.34
2012-09-06,11:10:00,138.36
2012-09-06,11:20:00,138.36
2012-09-06,11:30:00,138.38
2012-09-06,11:40:00,138.39
2012-09-06,11:50:00,138.41
2012-09-06,12:00:00,138.42
2012-09-06,12:10:00,138.43
2012-09-06,12:20:00,138.44
2012-09-06,12:30:00,138.45
2012-09-06,12:40:00,138.47
2012-09-06,12:50:00,138.48
2012-09-06,13:00:00,138.49
2012-09-06,13:10:00,138.49
2012-09-06,13:20:00,138.51
2012-09-06,13:30:00,138.51
2012-09-06,13:40:00,138.52
2012-09-06,13:50:00,138.53
2012-09-06,14:00:00,138.54
2012-09-06,14:10:00,138.54
2012-09-06,14:20:00,138.56
2012-09-06,14:30:00,138.56
2012-09-06,14:40:00,138.57
2012-09-06,14:50:00,138.58
2012-09-06,15:00:00,138.59
2012-09-06,15:10:00,138.61
2012-09-06,15:20:00,138.62
2012-09-06,15:30:00,138.63
2012-09-06,15:40:00,138.64
2012-09-06,15:50:00,138.64
2012-09-06,16:00:00,138.66
2012-09-06,16:10:00,138.66
2012-09-06,16:20:00,138.68
2012-09-06,16:30:00,138.68
2012-09-06,16:40:00,138.69
2012-09-06,16:50:00,138.7
2012-09-06,17:00:00,138.71
2012-09-06,17:10:00,138.71
2012-09-06,17:20:00,138.72
2012-09-06,17:30:00,138.72
2012-09-06,17:40:00,138.72
2012-09-06,17:50:00,138.72
2012-09-06,18:00:00,138.72
2012-09-06,18:10:00,138.73
2012-09-06,18:20:00,138.73
2012-09-06,18:30:00,138.74
2012-09-06,18:40:00,138.74
2012-09-06,18:50:00,138.73
2012-09-06,19:00:00,138.74
2012-09-06,19:10:00,138.74
2012-09-06,19:20:00,138.74
2012-09-06,19:30:00,138.74
2012-09-06,19:40:00,138.74
2012-09-06,19:50:00,138.74
2012-09-06,20:00:00,138.74
2012-09-06,20:10:00,138.74
2012-09-06,20:20:00,138.74
2012-09-06,20:30:00,138.74
2012-09-06,20:40:00,138.73
2012-09-06,20:50:00,138.73
2012-09-06,21:00:00,138.73
2012-09-06,21:10:00,138.73
2012-09-06,21:20:00,138.73
2012-09-06,21:30:00,138.72
2012-09-06,21:40:00,138.72
2012-09-06,21:50:00,138.72
2012-09-06,22:00:00,138.71
2012-09-06,22:10:00,138.71
2012-09-06,22:20:00,138.7
2012-09-06,22:30:00,138.69
2012-09-06,22:40:00,138.69
2012-09-06,22:50:00,138.68
2012-09-06,23:00:00,138.68
2012-09-06,23:10:00,138.67
2012-09-06,23:20:00,138.66
2012-09-06,23:30:00,138.66
2012-09-06,23:40:00,138.65
2012-09-06,23:50:00,138.64
2012-09-07,00:00:00,138.63
2012-09-07,00:10:00,138.62
2012-09-07,00:20:00,138.61
2012-09-07,00:30:00,138.61
2012-09-07,00:40:00,138.59
2012-09-07,00:50:00,138.59
2012-09-07,01:00:00,138.58
2012-09-07,01:10:00,138.57
2012-09-07,01:20:00,138.56
2012-09-07,01:30:00,138.54
2012-09-07,01:40:00,138.53
2012-09-07,01:50:00,138.52
2012-09-07,02:00:00,138.51
2012-09-07,02:10:00,138.5
2012-09-07,02:20:00,138.49
2012-09-07,02:30:00,138.48
2012-09-07,02:40:00,138.47
2012-09-07,02:50:00,138.46
2012-09-07,03:00:00,138.44
2012-09-07,03:10:00,138.43
2012-09-07,03:20:00,138.42
2012-09-07,03:30:00,138.4
2012-09-07,03:40:00,138.39
2012-09-07,03:50:00,138.38
2012-09-07,04:00:00,138.36
2012-09-07,04:10:00,138.36
2012-09-07,04:20:00,138.34
2012-09-07,04:30:00,138.34
2012-09-07,04:40:00,138.31